Temperature
14 15 15 15 15 15 14 14 14 14 14 15 14 14 15 15 15 15 15 15 16 16 15 15 15 15 14 14 13 13 13 13 13 12 12 12 11 11 11 10 10 10 10 10
14 15 14 14 14 14 14 14 14 14 14 14 14 15 15 15 15 15 15 15 16 16 15 15 15 14 14 14 13 13 13 12 12 12 12 11 11 11 10 10 10 10 10 9
13 13 14 14 14 14 14 14 14 14 15 14 13 13 14 15 15 15 16 16 16 16 16 15 15 14 14 14 13 13 12 12 12 12 11 11 11 10 10 10 10 9 9 9
11 13 14 14 14 14 14 14 13 13 14 13 13 14 15 15 15 15 16 16 15 15 15 15 14 14 14 13 13 12 12 12 11 11 11 11 10 10 10 10 9 9 9 9
10 12 13 14 14 14 14 14 13 13 13 13 13 13 14 15 15 15 15 15 15 15 15 14 14 14 13 13 13 12 12 11 11 11 11 10 10 10 10 9 9 9 9 9
10 12 13 14 14 14 14 14 13 12 12 12 12 12 13 15 15 15 15 15 14 14 14 14 13 13 13 12 12 12 11 11 11 10 10 10 10 10 9 9 9 9 8 8
10 11 11 12 13 14 13 13 13 13 12 12 12 13 14 14 14 15 14 14 14 14 13 13 13 13 12 12 12 11 11 11 10 10 10 10 9 9 9 9 8 8 8 8
9 10 11 12 12 12 12 13 13 13 13 13 13 14 14 14 14 14 14 14 13 13 13 12 12 12 12 11 11 11 10 10 10 10 9 9 9 9 9 8 8 8 8 8
10 11 11 11 12 13 13 13 13 13 13 13 13 13 13 13 13 13 13 13 13 12 12 12 12 11 11 11 11 10 10 10 10 9 9 9 9 8 8 8 8 8 7 7
9 9 11 12 12 13 13 13 13 13 13 13 13 13 13 13 13 13 12 12 12 12 12 11 11 11 11 10 10 10 10 9 9 9 9 9 8 8 8 7 7 7 7 7
8 9 10 12 12 12 12 12 13 13 13 13 13 12 12 12 12 12 12 12 11 11 11 11 11 10 10 10 10 9 9 9 9 8 8 8 8 7 7 7 7 7 6 6
9 10 9 11 12 12 12 12 12 12 12 12 12 12 12 12 12 11 11 11 11 11 10 10 10 10 10 9 9 9 9 8 8 8 8 7 7 7 6 6 6 6 6 5
11 11 11 11 11 11 11 11 11 11 11 11 12 11 11 11 11 11 11 11 11 10 10 10 9 9 9 9 9 8 8 8 8 7 7 7 7 6 6 6 5 5 5 5
10 10 10 10 10 11 11 11 11 11 11 10 11 11 11 11 11 10 10 10 10 10 9 9 9 9 9 8 8 8 8 7 7 7 7 6 6 6 6 5 5 5 5 4
10 10 10 10 10 10 10 10 10 10 10 10 10 10 10 10 10 10 10 10 9 9 9 9 8 8 8 8 8 7 7 7 7 6 6 6 6 5 5 5 4 4 4 4
10 10 10 9 9 9 9 9 9 9 9 9 9 9 9 9 9 9 9 9 9 9 8 8 8 8 8 7 7 7 7 6 6 6 6 5 5 5 4 4 4 4 4 4
9 9 9 9 9 9 9 9 9 9 9 9 9 9 9 9 9 9 8 8 8 8 8 8 8 8 7 7 7 7 6 6 6 5 5 5 5 4 4 4 4 4 3 3
9 9 9 9 9 9 8 8 8 8 8 8 8 8 8 8 8 8 8 8 7 8 8 8 7 7 7 7 6 6 6 6 5 5 5 4 4 4 4 4 4 3 3 3
8 8 8 8 8 8 8 8 8 8 8 8 8 8 8 8 8 8 7 7 7 7 7 7 7 7 6 6 6 6 5 5 5 5 4 4 4 4 3 3 3 3 3 3
8 8 8 8 8 7 7 7 7 7 7 7 7 7 7 7 7 7 7 7 7 7 7 7 6 6 6 6 5 5 5 5 4 4 4 4 4 3 3 3 3 3 2 2
7 7 7 7 7 7 7 7 7 7 7 7 7 7 7 7 7 6 6 6 6 6 6 6 6 6 6 5 5 5 4 4 4 4 4 3 3 3 3 3 2 2 2 2
7 7 7 7 7 7 7 7 7 6 7 7 6 6 6 6 6 6 6 6 6 6 6 6 5 5 5 5 5 4 4 4 4 3 3 3 3 3 2 2 2 2 2 2
6 6 6 6 6 6 6 6 6 6 6 6 6 6 6 6 6 6 5 5 5 5 5 5 5 5 5 4 4 4 4 3 3 3 3 2 2 2 2 2 2 2 1 1
6 6 6 6 6 6 6 6 6 6 6 6 6 6 6 5 5 5 5 5 5 5 5 4 4 4 4 4 4 3 3 3 3 2 2 2 2 2 1 1 1 1 1 1
5 5 5 5 5 5 6 6 5 5 5 5 5 5 5 5 5 5 5 4 4 4 4 4 4 4 4 3 3 3 3 2 2 2 2 2 1 1 1 1 1 1 1 0
5 5 5 5 5 5 5 5 5 5 5 4 4 4 4 4 4 4 4 4 4 4 4 4 3 3 3 3 3 3 2 2 2 2 1 1 1 1 1 0 0 0 0 0
4 5 5 5 5 5 5 5 5 4 4 4 4 4 4 4 4 4 4 3 3 3 3 3 3 3 3 2 2 2 2 2 1 1 1 1 1 0 0 0 -0 -0 -0 -0
Wind_Speed
6 5 3 4 5 5 7 8 8 8 8 10 8 7 5 4 4 4 5 6 7 7 6 5 5 4 5 5 5 5 5 6 6 5 4 3 3 3 3 3 3 3 2 1
4 3 3 5 6 6 7 6 7 6 8 8 6 3 3 4 5 6 6 7 7 6 6 6 6 5 5 5 5 5 5 5 5 4 4 4 3 3 3 2 2 2 2 2
3 4 4 6 6 6 5 5 6 8 9 4 3 4 5 5 5 7 7 7 7 7 7 7 7 6 6 5 5 5 5 5 4 5 4 4 4 3 3 3 2 2 2 2
1 1 5 6 3 4 5 4 4 4 5 4 4 3 2 2 5 5 5 5 5 5 5 5 4 4 4 4 5 5 5 4 4 4 4 4 4 4 3 3 3 3 3 3
2 3 6 5 2 2 3 5 2 3 3 2 1 2 3 2 3 5 5 5 5 4 4 4 4 4 5 4 4 4 4 4 4 4 4 4 4 4 3 3 2 2 2 2
3 3 5 5 4 3 1 4 3 2 2 1 2 1 4 2 2 2 2 2 3 4 4 4 3 4 5 5 5 5 5 4 4 4 5 5 5 4 3 3 3 2 2 2
4 5 6 5 5 1 2 5 4 1 1 2 3 5 3 1 1 2 3 3 4 5 4 4 4 5 5 4 5 5 4 3 3 3 4 4 3 2 3 2 2 2 2 2
4 4 6 4 2 3 4 3 2 1 1 2 2 2 1 0 1 3 3 3 4 4 3 3 4 5 5 4 3 3 3 3 3 3 3 3 3 2 2 3 3 2 1 1
6 6 4 2 3 3 2 2 3 2 2 1 1 1 1 1 1 1 3 3 3 4 3 3 3 5 5 3 2 3 3 3 2 2 2 3 4 3 2 2 2 2 2 2
4 6 5 5 5 4 3 4 4 3 2 1 1 1 1 1 1 1 2 2 3 4 4 3 3 3 3 3 3 4 3 3 2 2 2 2 2 3 3 3 3 3 3 3
5 8 7 5 5 5 4 4 4 3 2 1 2 2 2 2 3 3 2 2 3 4 4 4 3 3 2 3 3 3 3 3 3 3 3 2 2 2 3 4 5 4 4 3
8 7 5 7 6 5 5 5 5 4 4 2 2 3 3 3 3 3 3 3 3 3 3 3 3 3 3 3 4 4 3 3 3 3 3 3 2 0 1 2 3 4 4 3
9 7 7 8 8 6 6 6 6 5 5 4 3 3 3 3 3 3 3 4 4 4 4 3 3 3 3 3 4 5 4 4 3 3 3 3 3 3 1 1 1 2 3 3
6 4 7 8 8 7 6 6 5 4 4 4 3 2 2 2 2 3 4 4 4 3 3 3 3 4 3 3 4 4 4 4 4 4 4 3 3 3 3 2 1 2 2 2
7 7 8 8 7 6 5 3 3 4 3 3 3 3 3 3 4 4 4 3 3 3 3 4 4 4 3 3 4 4 3 3 3 3 3 3 3 3 2 3 3 2 1 2
7 5 5 5 6 6 5 5 5 6 5 4 4 4 4 4 4 3 3 4 4 5 5 4 4 4 4 4 4 3 3 4 3 3 3 3 3 3 3 3 3 3 3 2
5 6 6 6 7 7 7 7 6 6 6 5 5 4 3 3 2 2 3 3 4 5 5 5 5 4 4 5 5 3 3 3 4 3 3 3 3 3 3 3 3 3 3 3
7 8 7 7 7 7 7 6 6 6 6 6 4 4 4 5 5 5 4 3 2 2 3 4 4 4 4 4 4 4 3 3 3 3 3 3 3 3 3 3 4 4 3 3
5 6 6 6 6 6 6 6 6 5 5 4 4 4 5 5 5 5 4 4 4 4 4 4 5 4 4 5 5 4 4 4 3 3 3 4 3 3 3 3 3 3 3 3
5 4 4 4 5 5 5 5 4 4 4 4 3 3 3 4 4 4 3 4 5 5 4 4 4 4 5 6 5 4 4 4 4 3 3 3 3 3 3 3 3 3 3 3
5 3 3 3 4 4 4 4 4 4 4 4 4 5 4 3 3 3 3 3 4 3 3 4 3 3 4 5 5 4 4 4 4 4 3 3 3 3 3 2 3 3 3 3
4 3 3 3 3 4 4 3 3 4 3 3 3 3 3 2 2 2 3 4 4 4 3 2 3 4 5 5 4 4 4 4 3 3 3 3 3 3 2 2 2 2 2 2
4 4 3 3 3 3 3 3 2 3 3 3 4 4 3 3 3 3 2 2 2 3 2 3 3 4 4 4 3 4 4 4 3 3 3 3 3 3 3 3 2 2 2 2
4 4 4 3 2 2 2 3 2 2 2 2 3 3 3 2 1 1 2 2 3 3 2 3 4 4 3 3 3 3 3 3 3 3 3 3 2 2 2 2 2 2 2 2
4 4 3 2 2 2 2 2 0 0 1 0 0 1 1 2 2 1 1 1 2 1 1 3 3 3 2 3 3 3 3 3 3 3 3 3 3 3 2 2 2 2 2 2
4 3 3 3 2 2 1 1 1 1 1 0 1 1 1 1 1 1 1 1 1 1 1 1 2 2 2 2 3 3 3 2 2 2 3 3 3 3 3 2 2 2 2 2
3 3 2 1 1 1 1 1 1 1 2 2 1 1 0 0 0 1 1 1 1 1 1 1 1 2 2 2 2 2 2 2 2 2 2 2 2 2 3 3 3 3 3 2
Wind_Direction
251 260 238 238 240 206 199 201 209 233 233 252 253 243 234 210 179 166 174 180 187 191 191 185 182 182 182 184 180 177 173 179 191 187 178 171 173 176 174 173 174 171 169 175
293 287 255 266 262 237 228 224 227 242 260 255 255 225 214 202 184 189 197 200 199 195 188 190 191 189 184 185 182 171 176 188 181 168 169 174 178 172 167 169 162 156 174 184
269 296 328 278 249 225 226 219 203 229 250 254 231 218 219 218 205 204 206 203 198 195 193 195 195 187 187 186 169 165 176 181 178 173 178 187 179 169 180 182 168 178 200 193
231 356 246 250 240 214 227 250 236 246 262 242 226 235 231 208 203 209 205 200 199 194 191 189 179 173 166 156 159 166 170 178 182 178 180 177 174 185 193 186 184 199 211 211
158 232 270 292 291 220 222 271 268 246 270 290 9 31 334 267 198 204 204 197 192 186 178 165 162 160 151 149 151 161 180 189 189 183 181 181 190 198 194 180 190 207 213 211
158 203 241 256 286 287 172 282 312 261 238 220 85 61 274 275 187 191 177 164 156 142 131 143 153 147 148 159 164 186 199 197 188 183 187 193 199 198 193 188 202 203 213 224
193 225 260 276 295 55 158 262 309 279 219 171 203 229 253 266 167 157 147 137 132 131 141 156 149 144 153 168 193 204 190 178 179 183 189 191 187 189 176 175 173 186 214 251
173 209 254 296 66 158 234 283 305 300 259 219 244 295 318 151 156 138 127 123 131 137 145 146 145 148 159 191 210 183 164 165 177 181 187 176 165 172 166 167 174 189 204 272
199 219 252 254 236 256 243 271 286 282 280 213 238 278 277 238 174 154 142 142 146 150 149 149 161 161 170 197 178 158 150 166 176 171 173 169 170 174 171 172 182 202 203 231
260 271 268 264 270 287 275 267 277 273 277 213 219 251 254 230 192 160 149 153 151 148 156 182 194 189 186 183 164 158 167 178 175 166 161 156 167 175 179 188 196 205 213 223
266 281 302 298 288 298 307 309 309 308 289 240 220 251 236 224 212 192 180 170 167 172 184 201 196 196 191 176 162 165 177 183 178 176 171 171 180 194 199 214 206 206 215 209
246 251 247 267 280 289 290 291 288 283 289 288 236 235 230 220 211 191 184 181 181 189 196 204 194 202 208 191 173 169 176 185 183 179 178 176 173 206 252 231 232 230 222 222
248 261 255 269 281 274 266 271 274 259 249 259 261 232 215 228 212 189 181 182 189 196 194 190 189 200 207 189 173 173 184 192 188 187 185 183 179 180 215 311 294 250 231 230
253 263 271 272 273 275 272 271 267 257 254 249 251 249 224 223 218 205 208 205 192 183 181 184 190 207 207 186 177 182 187 201 197 192 188 186 190 196 196 202 245 295 282 240
266 257 253 266 276 279 281 277 268 259 250 251 245 230 213 213 220 228 227 205 175 175 191 195 199 215 204 184 182 188 190 195 192 184 182 182 188 193 201 207 215 236 279 284
268 270 262 265 268 274 278 272 258 256 248 240 239 230 221 220 221 218 206 189 183 199 207 204 213 216 196 183 182 189 196 199 186 175 174 180 186 193 206 212 218 223 231 245
255 261 261 265 265 264 261 255 247 246 251 246 238 225 207 201 207 216 221 214 211 218 214 209 216 212 195 188 184 187 187 195 192 184 187 192 195 204 212 214 219 227 236 231
243 245 247 246 253 258 262 258 249 244 245 245 235 212 201 201 210 219 222 216 211 237 239 224 214 200 195 193 187 182 180 185 189 192 195 198 204 207 209 213 219 228 243 243
259 256 260 264 263 255 250 249 248 245 242 231 213 215 219 217 216 218 210 198 203 230 245 229 212 197 197 199 185 176 180 187 194 198 198 203 205 202 207 213 219 226 229 230
279 266 263 273 273 259 252 249 246 247 239 221 208 210 221 223 213 203 195 211 224 226 222 218 208 204 200 197 188 179 184 190 193 195 196 202 206 209 213 217 220 225 230 231
285 276 278 284 290 284 265 245 233 236 236 217 207 216 223 226 207 188 187 231 258 229 212 212 202 206 197 189 187 179 185 189 190 194 199 207 211 211 212 218 221 227 231 235
292 277 277 281 289 296 287 260 235 226 220 214 209 205 198 206 202 198 217 227 234 222 207 210 214 207 192 184 178 179 184 187 192 194 199 205 208 210 213 217 224 233 240 243
298 285 277 272 267 276 288 274 243 215 203 203 202 197 198 206 199 192 237 245 215 207 204 214 217 206 192 175 173 179 184 188 193 197 201 205 206 206 209 217 225 228 237 245
301 290 284 288 295 293 289 286 273 235 206 203 200 189 181 188 243 251 231 227 222 213 210 209 206 200 181 167 174 181 187 192 195 195 193 196 201 205 210 215 224 229 234 243
295 289 285 291 288 273 262 265 281 119 132 168 169 165 182 185 195 220 218 220 215 208 213 216 208 198 175 173 179 186 191 196 195 188 189 197 205 207 210 215 218 224 232 241
290 282 273 263 257 258 258 231 217 208 163 143 341 348 34 81 136 158 167 199 204 214 213 212 205 196 179 178 181 184 189 196 199 196 198 204 206 206 207 210 214 220 230 236
291 285 287 302 302 264 229 209 204 215 200 183 216 287 333 103 146 155 167 190 191 211 217 208 187 178 176 174 174 173 173 173 178 185 190 197 202 205 209 211 213 218 221 228
Height
1496 1493 1493 1493 1492 1493 1496 1497 1501 1496 1495 1486 1482 1481 1480 1480 1481 1482 1483 1485 1487 1489 1491 1493 1495 1497 1498 1500 1502 1503 1505 1506 1507 1509 1510 1510 1511 1512 1512 1513 1513 1513 1513 1513
1496 1492 1492 1492 1490 1490 1490 1490 1491 1490 1488 1479 1478 1478 1478 1478 1479 1479 1481 1482 1484 1486 1488 1490 1492 1494 1495 1497 1499 1500 1502 1503 1505 1506 1507 1508 1508 1509 1509 1510 1510 1510 1510 1510
1501 1495 1492 1495 1487 1486 1485 1484 1485 1486 1481 1476 1476 1476 1476 1476 1476 1477 1478 1479 1481 1483 1485 1487 1489 1491 1493 1495 1496 1498 1499 1501 1502 1503 1504 1505 1505 1506 1506 1507 1507 1507 1507 1507
1503 1499 1500 1488 1479 1479 1480 1479 1478 1477 1475 1474 1473 1473 1473 1474 1474 1475 1476 1478 1479 1481 1483 1485 1487 1489 1491 1492 1494 1495 1496 1498 1499 1500 1501 1501 1502 1502 1503 1503 1504 1504 1504 1503
1504 1502 1494 1483 1478 1478 1479 1478 1475 1475 1473 1473 1473 1473 1473 1472 1473 1474 1475 1476 1478 1479 1481 1483 1485 1487 1488 1490 1491 1493 1493 1494 1496 1497 1498 1498 1499 1499 1500 1500 1500 1500 1500 1500
1502 1500 1497 1484 1476 1473 1476 1479 1474 1473 1473 1473 1473 1477 1474 1471 1471 1472 1473 1475 1476 1478 1480 1481 1483 1484 1486 1487 1488 1489 1490 1491 1493 1493 1494 1495 1495 1496 1496 1497 1497 1497 1497 1497
1499 1498 1490 1480 1475 1473 1484 1482 1473 1471 1471 1472 1473 1473 1472 1471 1471 1471 1472 1473 1474 1476 1477 1479 1481 1482 1483 1484 1485 1486 1488 1488 1489 1490 1491 1491 1492 1493 1493 1493 1493 1493 1493 1493
1498 1497 1491 1476 1475 1478 1478 1473 1472 1470 1470 1470 1470 1470 1470 1470 1470 1470 1471 1472 1473 1474 1476 1477 1478 1480 1481 1481 1483 1484 1485 1485 1486 1487 1487 1488 1488 1489 1489 1489 1489 1489 1489 1489
1487 1485 1478 1476 1475 1474 1473 1472 1471 1470 1469 1470 1469 1469 1469 1469 1468 1469 1469 1470 1471 1472 1474 1475 1476 1478 1478 1479 1480 1481 1481 1482 1483 1483 1484 1484 1485 1485 1485 1485 1485 1484 1484 1484
1482 1477 1474 1473 1472 1472 1471 1470 1469 1469 1468 1468 1468 1468 1468 1467 1467 1468 1468 1469 1470 1471 1472 1473 1474 1475 1476 1477 1478 1478 1478 1479 1479 1480 1480 1481 1481 1481 1481 1481 1480 1480 1480 1480
1480 1475 1472 1469 1469 1469 1469 1469 1468 1467 1467 1466 1466 1466 1466 1466 1466 1466 1467 1467 1468 1469 1470 1471 1471 1472 1473 1474 1474 1475 1475 1475 1476 1476 1476 1477 1477 1477 1477 1477 1477 1477 1477 1477
1475 1471 1471 1468 1467 1467 1467 1466 1466 1466 1465 1464 1464 1464 1464 1464 1464 1464 1464 1465 1466 1467 1467 1468 1469 1469 1470 1471 1471 1472 1472 1472 1472 1472 1472 1473 1473 1473 1473 1473 1473 1473 1473 1473
1468 1467 1466 1465 1464 1464 1463 1462 1462 1462 1462 1461 1461 1461 1461 1461 1461 1461 1462 1462 1463 1464 1464 1465 1465 1466 1467 1468 1468 1468 1468 1468 1468 1468 1468 1469 1469 1469 1469 1469 1469 1469 1469 1469
1464 1464 1462 1460 1460 1460 1459 1458 1458 1458 1458 1458 1458 1458 1457 1458 1458 1458 1458 1459 1460 1461 1461 1462 1462 1463 1464 1464 1464 1464 1465 1465 1465 1465 1465 1465 1465 1465 1465 1465 1464 1464 1465 1465
1459 1459 1458 1456 1456 1456 1455 1454 1454 1453 1453 1453 1454 1454 1454 1454 1454 1454 1455 1455 1456 1457 1458 1459 1459 1460 1460 1460 1460 1461 1461 1461 1461 1461 1461 1462 1462 1462 1461 1461 1461 1461 1461 1461
1454 1454 1453 1453 1452 1451 1451 1450 1450 1449 1449 1449 1449 1449 1449 1450 1450 1450 1451 1452 1453 1453 1454 1455 1455 1456 1456 1456 1457 1457 1457 1458 1458 1458 1458 1458 1458 1458 1458 1458 1458 1458 1458 1458
1449 1448 1448 1448 1447 1447 1446 1446 1446 1445 1445 1444 1444 1445 1445 1446 1446 1446 1447 1448 1449 1450 1450 1451 1451 1452 1452 1453 1453 1453 1453 1454 1454 1454 1454 1454 1455 1455 1455 1455 1454 1454 1454 1455
1445 1444 1444 1443 1442 1442 1441 1441 1441 1440 1440 1440 1440 1441 1441 1442 1442 1442 1443 1445 1445 1446 1447 1448 1448 1448 1449 1449 1450 1450 1450 1450 1450 1450 1450 1451 1451 1451 1451 1451 1451 1451 1451 1451
1440 1439 1439 1439 1438 1437 1436 1436 1436 1436 1436 1436 1436 1437 1437 1438 1438 1439 1440 1440 1441 1441 1443 1444 1444 1445 1445 1445 1446 1446 1446 1446 1447 1447 1447 1447 1447 1447 1448 1448 1448 1448 1448 1447
1435 1435 1435 1434 1433 1433 1432 1431 1431 1431 1432 1432 1433 1433 1434 1434 1435 1435 1436 1436 1437 1438 1439 1440 1440 1440 1441 1441 1442 1442 1442 1443 1443 1443 1443 1444 1444 1444 1444 1444 1444 1444 1444 1443
1432 1431 1431 1430 1429 1428 1428 1427 1427 1427 1428 1428 1429 1429 1430 1430 1431 1431 1432 1432 1433 1434 1435 1435 1436 1436 1437 1437 1438 1438 1438 1439 1439 1439 1439 1440 1440 1440 1440 1440 1440 1440 1440 1439
1429 1428 1427 1426 1426 1425 1424 1424 1424 1424 1424 1425 1425 1426 1427 1427 1427 1428 1429 1430 1430 1431 1431 1432 1432 1432 1433 1433 1433 1434 1434 1435 1435 1435 1435 1435 1436 1436 1436 1436 1436 1436 1436 1436
1426 1425 1424 1423 1422 1421 1421 1421 1420 1421 1421 1421 1422 1423 1423 1424 1424 1425 1425 1427 1427 1427 1428 1428 1428 1429 1429 1429 1429 1430 1430 1430 1430 1431 1431 1431 1432 1432 1432 1432 1432 1432 1432 1432
1424 1422 1421 1421 1420 1419 1418 1418 1418 1418 1418 1419 1420 1420 1421 1421 1421 1422 1423 1423 1424 1424 1424 1425 1425 1425 1425 1425 1425 1426 1426 1426 1427 1427 1427 1428 1428 1428 1428 1428 1428 1428 1428 1428
1421 1420 1419 1418 1417 1416 1416 1415 1415 1415 1416 1416 1417 1417 1418 1418 1418 1419 1419 1419 1420 1420 1420 1421 1421 1421 1421 1421 1422 1422 1422 1423 1423 1423 1424 1424 1424 1424 1424 1424 1424 1424 1424 1424
1418 1417 1416 1415 1414 1414 1414 1413 1413 1413 1413 1413 1414 1414 1415 1415 1416 1416 1416 1416 1417 1417 1417 1417 1417 1417 1417 1417 1418 1418 1418 1419 1419 1419 1420 1420 1420 1420 1420 1420 1420 1420 1420 1420
1415 1414 1413 1412 1412 1412 1412 1411 1411 1411 1411 1411 1411 1412 1412 1413 1413 1413 1413 1413 1413 1413 1413 1414 1414 1414 1414 1414 1414 1415 1415 1415 1415 1416 1416 1416 1416 1416 1416 1416 1416 1416 1416 1416